Peoria, IL

8:00 PM CDT on May 22, 2017 (GMT -0500)
Greater Peoria Regional

Weather History for KPIA - May, 2013

Change the Weather History Date:

Friday, May 10, 2013

  Actual Average Record
Temperature  
Mean Temperature 56 °F 61 °F  
Max Temperature 61 °F 71 °F 93 °F (1896)
Min Temperature 50 °F 50 °F 25 °F (1966)
Degree Days  
Heating Degree Days 9 6  
Month to date heating degree days 36 69  
Since 1 July heating degree days 5728 5734  
Cooling Degree Days 0 1  
Month to date cooling degree days 10 10  
Year to date cooling degree days 19 24  
Growing Degree Days 5 (Base 50)    
Moisture  
Dew Point 51 °F    
Average Humidity 87    
Maximum Humidity 97    
Minimum Humidity 77    
Precipitation  
Precipitation 0.01 in 0.15 in 1.73 in (1933)
Month to date precipitation 2.03 1.38  
Year to date precipitation 19.14 11.38  
Snow  
Snow 0.00 in 0.00 in T in (1966)
Month to date snowfall 0.0 0.0  
Since 1 July snowfall 22.7 24.6  
Snow Depth 0.00 in    
Sea Level Pressure  
Sea Level Pressure 29.90 in    
Wind  
Wind Speed 6 mph (NNW)    
Max Wind Speed 13 mph    
Max Gust Speed 17 mph    
Visibility 9 miles    
Events Rain    
T = Trace of Precipitation, MM = Missing Value Source: NWS Daily Summary

Daily Weather History Graph

Daily Weather History Graph

Search for Another Location

Airport or City:

Trip Planner

Search our weather history database for the weather conditions in past years. The results will help you decide how hot, cold, wet, or windy it might be!

Date:

Astronomy

May. 10, 2013 Rise Set
Actual Time 5:46 AM CDT 8:04 PM CDT
Civil Twilight 5:16 AM CDT 8:34 PM CDT
Nautical Twilight 4:38 AM CDT 9:12 PM CDT
Astronomical Twilight 3:56 AM CDT 9:54 PM CDT
Moon 6:10 AM CDT (5/10) 8:53 PM CDT (5/10)
Length of Visible Light 15h 18m
Length of Day
14h 17m
New Moon, 0% of the Moon is Illuminated
May 10
New Moon
May 17
First Quarter
May 24
Full
May 31
Last Quarter
Jun 8
New

Hourly Weather History & Observations

Time (CDT) Temp. Dew Point Humidity Pressure Visibility Wind Dir Wind Speed Gust Speed Precip Events Conditions
12:54 AM 61.0 °F 59.0 °F 93% 29.81 in 8.0 mi WSW 6.9 mph - N/A   Mostly Cloudy
1:54 AM 60.1 °F 57.9 °F 93% 29.82 in 9.0 mi WSW 10.4 mph - N/A   Overcast
2:35 AM 60.1 °F 57.9 °F 93% 29.81 in 9.0 mi West 8.1 mph - N/A   Scattered Clouds
2:54 AM 60.1 °F 57.9 °F 93% 29.81 in 8.0 mi West 9.2 mph - N/A   Scattered Clouds
3:04 AM 61.0 °F 59.0 °F 93% 29.81 in 9.0 mi West 8.1 mph - N/A   Mostly Cloudy
3:54 AM 61.0 °F 57.9 °F 90% 29.82 in 10.0 mi WNW 5.8 mph - N/A   Overcast
4:08 AM 61.0 °F 57.9 °F 90% 29.82 in 10.0 mi WNW 8.1 mph - N/A   Overcast
4:44 AM 61.0 °F 57.9 °F 90% 29.81 in 10.0 mi WNW 5.8 mph - N/A   Overcast
4:54 AM 61.0 °F 57.9 °F 90% 29.81 in 10.0 mi WNW 5.8 mph - N/A   Overcast
5:29 AM 61.0 °F 57.0 °F 87% 29.83 in 10.0 mi West 9.2 mph - N/A   Overcast
5:54 AM 60.1 °F 55.9 °F 86% 29.83 in 10.0 mi WNW 8.1 mph - N/A   Overcast
6:54 AM 59.0 °F 55.4 °F 88% 29.85 in 10.0 mi WNW 6.9 mph - N/A   Overcast
7:27 AM 55.0 °F 53.1 °F 93% 29.86 in 2.5 mi North 10.4 mph 17.3 mph 0.00 in Rain Light Rain
7:36 AM 54.0 °F 52.0 °F 93% 29.87 in 2.5 mi NNW 9.2 mph - 0.00 in   Overcast
7:54 AM 53.6 °F 51.8 °F 94% 29.87 in 2.5 mi North 6.9 mph - N/A Rain Light Rain
8:08 AM 52.0 °F 51.1 °F 97% 29.88 in 3.0 mi Variable 5.8 mph - 0.00 in   Overcast
8:30 AM 51.1 °F 48.9 °F 92% 29.89 in 2.5 mi NNE 8.1 mph - 0.00 in Rain Light Rain
8:54 AM 51.1 °F 48.9 °F 92% 29.90 in 3.0 mi Variable 4.6 mph - 0.01 in   Overcast
9:54 AM 51.1 °F 48.0 °F 89% 29.91 in 10.0 mi North 6.9 mph - N/A   Overcast
10:54 AM 52.0 °F 46.9 °F 83% 29.92 in 10.0 mi NNE 8.1 mph 17.3 mph N/A   Overcast
11:03 AM 52.0 °F 46.9 °F 83% 29.92 in 10.0 mi NNE 6.9 mph - N/A   Overcast
11:54 AM 53.6 °F 46.4 °F 77% 29.93 in 10.0 mi Variable 6.9 mph - N/A   Overcast
12:54 PM 53.1 °F 46.9 °F 80% 29.94 in 10.0 mi North 10.4 mph - N/A   Overcast
1:54 PM 54.0 °F 46.9 °F 77% 29.94 in 10.0 mi Variable 5.8 mph - N/A   Overcast
2:54 PM 53.1 °F 46.9 °F 80% 29.94 in 10.0 mi NNW 6.9 mph - N/A   Overcast
3:54 PM 53.1 °F 46.9 °F 80% 29.95 in 10.0 mi Variable 6.9 mph - N/A   Overcast
4:54 PM 51.8 °F 46.4 °F 82% 29.96 in 10.0 mi Variable 6.9 mph - N/A   Overcast
5:54 PM 51.1 °F 46.0 °F 83% 29.96 in 10.0 mi North 6.9 mph - N/A   Overcast
6:54 PM 52.0 °F 46.0 °F 80% 29.98 in 10.0 mi NNW 3.5 mph - N/A   Overcast
7:39 PM 52.0 °F 46.0 °F 80% 29.99 in 10.0 mi NNW 4.6 mph - N/A   Overcast
7:54 PM 52.0 °F 46.0 °F 80% 29.99 in 10.0 mi Variable 3.5 mph - N/A   Overcast
8:54 PM 52.0 °F 46.0 °F 80% 29.99 in 10.0 mi Variable 3.5 mph - N/A   Overcast
9:54 PM 51.1 °F 46.0 °F 83% 29.99 in 10.0 mi North 5.8 mph - N/A   Overcast
10:44 PM 51.1 °F 45.0 °F 80% 29.99 in 10.0 mi North 4.6 mph - N/A   Overcast
10:54 PM 51.1 °F 45.0 °F 80% 29.99 in 10.0 mi NNE 6.9 mph - N/A   Overcast
11:01 PM 51.1 °F 45.0 °F 80% 29.99 in 10.0 mi North 3.5 mph - N/A   Overcast
11:50 PM 51.8 °F 44.6 °F 76% 29.99 in 10.0 mi NNE 5.8 mph - N/A   Overcast
11:54 PM 51.1 °F 45.0 °F 80% 29.99 in 10.0 mi NNE 4.6 mph - N/A   Overcast